User: anonymous   Login
Location: Banios
(43.0451°N, 0.2335°E)
Time: 15:58:27
(UTC+00:00)
Language:

GEOS 3 Rocket - Orbit

View from above orbital plane
View from above orbital plane
View from above satellite
View from above satellite

Ground track
Ground track

The orbit data is extracted from the following two-line orbital elements,

1 07735U 75027B   21107.91384201 -.00000132  00000-0  19654-4 0  9998
2 07735 114.9762 108.8863 0050115 230.5668 129.0971 14.24634997389693
Epoch (UTC): 17 April 2021 21:55:55
Eccentricity: 0.0050115
inclination: 114.9762°
perigee height: 774 km
apogee height: 846 km
right ascension of ascending node: 108.8863°
argument of perigee: 230.5668°
revolutions per day: 14.24634997
mean anomaly at epoch: 129.0971°
orbit number at epoch: 38969

The dashed part of the orbit path shows where the satellite is in the earth's shadow,  

DLR